Wind_Speed
11 14 14 14 12 8 3 1 0 0 0 1 1 0 1 2 2 3 4 3 3 1 1 3 5 4 3 5 6 5 4 3 3 3 2 3 20 26 20 20 22 21 20 19 19 19 18 15 12 12 12 13 15 15 14 13 12 12 11 11 11 11 12 13 13 13 13 13 13 13 13 13 13 14 14 13 13 13 13 13 12 12 12 12 12 13 14 15 15 15 16 17 17 16 16 15 16
15 16 14 12 9 4 1 0 1 0 1 1 1 1 1 2 2 4 5 3 2 2 2 5 6 4 5 8 7 5 5 5 2 3 3 15 24 20 21 22 22 22 20 19 19 19 19 16 13 11 12 12 13 14 13 13 12 11 11 11 10 10 10 11 12 12 12 12 13 13 13 13 12 13 14 14 13 12 12 12 12 12 12 12 12 12 14 15 15 16 17 18 17 17 16 15 16
17 17 14 10 4 1 1 1 1 1 1 1 0 2 1 2 3 4 3 2 2 5 4 5 6 3 4 7 4 2 3 4 6 6 7 19 19 16 23 22 22 22 20 19 18 18 19 17 14 11 11 11 12 12 11 11 11 10 10 10 10 10 10 10 10 11 12 12 12 13 12 12 12 12 13 13 13 12 12 12 11 12 12 12 12 13 14 15 16 15 16 16 16 16 16 15 16
16 13 11 7 2 0 0 1 1 1 2 1 1 1 1 2 3 3 3 2 1 5 4 4 4 3 3 6 3 3 4 4 7 7 7 14 16 22 26 23 23 21 20 19 17 18 17 17 16 13 11 11 12 11 11 10 9 9 9 10 10 10 10 10 10 10 11 11 12 12 12 12 12 12 12 13 13 12 12 12 12 12 12 12 12 13 15 16 15 14 14 15 14 14 15 15 16
13 7 6 4 1 1 1 1 1 1 1 1 2 2 1 3 3 3 1 2 3 3 2 3 3 2 4 4 1 3 4 5 6 7 10 14 21 28 27 24 23 21 21 19 18 17 16 17 16 15 13 13 12 11 11 9 8 8 8 9 9 9 10 9 9 9 10 11 11 11 11 11 11 11 11 12 11 11 12 11 11 11 11 12 11 12 15 15 14 13 13 14 14 14 15 15 15
11 6 4 3 1 0 1 1 1 1 0 1 3 3 2 3 2 3 3 4 4 1 3 3 5 5 5 4 3 3 5 7 7 9 14 21 26 28 27 25 23 22 21 19 18 16 16 16 16 15 14 14 13 11 10 9 8 7 7 8 8 9 9 9 9 9 10 10 10 10 11 11 11 11 11 11 11 10 11 11 11 11 10 11 11 11 13 14 13 13 13 13 14 14 15 15 14
8 5 2 2 0 0 1 2 2 1 2 3 2 3 3 2 1 5 5 3 3 3 4 5 7 8 4 2 4 4 7 8 8 12 20 26 27 27 27 25 23 23 21 19 18 17 16 16 16 16 15 15 13 11 9 8 8 7 7 7 8 9 9 9 9 9 10 10 10 10 10 11 11 11 10 10 10 10 10 11 10 11 11 11 10 11 12 13 13 13 13 13 14 14 14 14 14
6 2 1 1 1 0 0 2 2 2 2 3 3 4 3 1 1 3 3 2 1 2 6 6 6 7 4 3 3 5 11 11 12 20 26 28 28 26 26 25 24 23 21 20 18 17 16 16 16 15 15 14 12 11 9 8 7 7 7 7 8 9 9 8 9 10 10 10 10 9 9 10 10 10 10 10 10 10 10 11 11 11 11 10 10 10 12 13 12 13 13 13 14 14 13 14 14
3 2 0 1 1 1 1 2 3 3 3 3 3 3 3 2 2 1 2 2 3 4 6 5 4 6 5 6 6 5 12 16 21 25 27 27 27 26 25 25 25 24 22 20 19 18 17 16 16 15 14 13 11 10 8 7 7 7 7 7 8 8 8 8 9 10 10 10 9 9 10 10 10 10 10 10 10 10 10 10 10 11 11 11 10 10 11 13 13 13 13 13 13 13 13 14 13
1 2 0 0 1 2 2 2 2 2 4 4 3 2 2 1 1 2 1 4 6 5 6 6 7 9 8 7 5 5 13 22 25 25 25 27 25 25 24 24 24 24 22 21 20 18 17 16 15 15 14 12 11 9 8 8 7 7 7 8 8 8 8 8 9 10 10 10 10 10 10 10 10 10 10 10 11 11 11 10 10 12 12 10 10 11 12 13 13 13 14 13 13 12 13 13 12
1 2 0 0 2 2 1 3 2 2 5 5 2 1 1 1 1 1 0 5 6 7 8 9 10 11 10 5 3 9 19 22 23 24 25 24 23 23 24 23 23 23 23 23 20 18 18 17 15 15 13 11 9 8 8 8 8 8 8 8 8 8 8 9 10 10 10 10 10 11 10 10 11 11 11 11 11 12 11 11 11 12 12 11 11 12 13 14 13 13 13 12 12 12 12 11 11
1 1 1 1 2 2 2 4 3 3 5 5 2 1 1 0 1 1 3 7 8 10 7 5 7 9 9 4 3 13 20 19 21 24 23 22 22 23 23 23 24 24 25 23 21 19 18 17 15 14 12 10 9 9 9 8 8 9 9 8 8 9 9 10 10 11 11 10 11 11 11 11 11 11 11 11 11 11 11 11 12 12 12 12 12 12 13 14 14 13 13 12 12 12 11 11 11
1 0 1 1 1 2 4 4 4 4 3 2 2 1 1 0 1 2 4 8 10 10 5 5 8 7 7 5 5 10 14 17 21 23 22 22 22 22 22 23 24 25 25 23 22 20 18 16 14 12 11 10 10 10 9 9 9 9 9 8 9 10 10 11 11 11 11 10 11 11 11 11 11 12 11 11 11 10 10 11 12 12 12 12 12 13 13 13 14 13 12 11 12 11 11 11 11
2 0 2 2 1 2 3 4 5 4 2 2 2 2 1 0 1 1 5 10 7 6 6 7 9 7 8 7 7 6 11 20 22 22 23 22 22 22 22 23 24 25 24 23 21 19 17 15 14 12 11 11 11 10 9 9 9 9 9 9 10 10 11 12 11 11 10 10 10 11 11 11 12 12 12 11 11 10 10 11 12 12 12 12 12 13 13 13 13 13 12 11 11 11 10 10 10
2 1 2 2 1 2 2 3 4 3 3 4 4 3 2 1 1 1 4 8 5 5 9 8 5 5 7 8 8 9 15 23 22 24 24 22 22 22 22 22 23 24 23 21 18 17 16 15 14 13 12 12 11 10 10 9 9 9 9 10 10 10 11 11 11 11 10 10 10 10 11 11 11 11 11 11 10 11 10 10 11 12 12 12 12 12 12 13 13 13 12 11 10 11 10 10 10
1 1 1 1 1 2 2 3 3 3 2 3 5 4 2 2 1 1 0 2 6 6 6 5 4 3 7 5 10 18 23 24 24 25 24 23 23 21 21 21 22 21 19 18 16 17 16 16 15 13 13 12 11 11 11 10 9 8 8 10 10 9 10 11 11 10 10 10 10 10 11 11 11 11 11 10 10 11 10 10 10 11 12 12 12 12 12 12 12 12 11 10 10 10 10 9 9
1 1 1 1 1 2 3 5 4 4 4 5 6 4 3 3 2 1 1 2 8 7 3 2 1 5 8 9 18 26 26 26 26 25 23 23 22 21 20 20 19 18 17 18 17 17 17 16 15 14 13 13 12 12 12 10 9 9 8 9 10 9 9 11 10 11 11 11 10 10 11 12 11 11 10 10 10 10 10 11 11 11 12 12 12 12 12 12 12 11 10 10 10 9 9 8 8
1 1 1 0 2 2 3 5 4 5 7 8 7 5 5 7 2 2 1 5 7 6 5 6 7 9 14 19 26 27 26 26 25 24 22 21 20 19 18 19 19 18 18 18 17 17 17 16 15 14 14 14 14 13 12 10 10 10 9 9 10 10 10 11 11 11 11 11 11 11 11 11 11 11 10 10 11 11 11 11 11 12 12 12 12 12 11 12 12 11 10 10 9 8 8 8 8
2 1 2 2 2 2 2 5 6 6 9 9 8 5 5 7 4 1 4 7 7 8 8 9 11 13 16 22 26 25 26 25 24 23 21 20 20 19 18 19 19 19 19 18 17 17 17 16 15 15 15 16 15 13 11 10 11 11 10 10 10 10 11 11 11 11 10 11 12 11 11 11 11 10 10 11 11 11 11 10 11 12 12 12 12 12 11 11 11 10 10 9 8 7 8 8 8
2 1 1 3 2 1 2 5 5 6 10 11 8 5 4 4 2 0 5 9 8 8 9 10 13 14 17 18 22 25 23 22 23 22 20 20 20 20 20 20 20 20 20 19 18 17 17 16 16 16 16 17 15 13 11 10 11 11 11 11 11 11 11 11 11 10 10 11 12 11 11 11 11 11 11 12 11 11 11 11 11 11 12 12 12 12 12 11 11 10 10 9 7 7 7 7 8
2 3 2 3 4 2 2 4 5 8 9 10 8 6 6 3 0 2 8 10 6 7 9 12 15 18 18 17 20 22 21 21 21 19 19 19 18 19 19 20 20 20 20 20 19 18 17 17 16 16 17 17 15 13 12 11 12 12 12 11 11 11 11 11 11 10 11 11 12 11 11 11 11 10 11 12 12 11 11 11 11 11 12 12 12 12 12 12 12 11 9 8 8 7 6 5 6
1 3 2 4 4 2 3 4 7 9 7 7 7 7 6 2 2 3 7 8 5 7 10 13 16 18 18 18 19 19 19 19 18 18 19 19 19 17 17 19 19 20 20 20 19 19 18 17 17 17 17 17 15 13 12 12 13 12 12 11 11 11 11 11 11 11 11 11 12 12 11 11 10 10 11 13 12 11 11 11 11 11 11 12 12 12 12 12 12 10 9 8 7 6 5 4 4
1 3 2 5 4 4 6 5 8 9 7 7 6 5 5 4 5 1 2 5 2 6 11 14 16 18 21 19 18 16 16 17 17 19 19 20 20 19 19 19 20 21 20 20 20 21 19 18 17 17 17 16 15 13 13 13 13 12 12 11 11 12 11 11 12 12 12 11 11 11 11 10 9 10 12 13 13 12 12 12 12 11 11 12 12 12 12 11 11 10 9 8 7 6 5 4 4
3 3 1 5 4 5 7 7 8 8 6 5 4 5 6 6 7 1 1 2 1 7 13 14 17 20 21 18 15 15 16 17 18 20 21 21 22 22 21 20 21 22 21 20 21 22 20 18 18 17 17 16 15 14 14 14 13 12 12 12 12 12 12 12 12 12 11 10 11 10 10 10 9 11 13 13 12 12 12 12 12 11 11 11 11 11 11 10 10 9 9 8 7 5 4 4 3
5 3 1 4 4 6 9 10 10 8 5 3 4 6 3 3 5 2 1 2 2 12 15 13 16 17 16 15 14 14 14 16 18 19 20 20 20 21 20 20 22 22 22 22 22 22 20 18 18 17 17 16 15 14 14 14 13 13 13 13 12 12 13 13 13 12 11 11 10 9 9 10 10 12 13 13 13 12 12 11 11 11 11 10 10 9 9 9 9 8 8 7 6 5 4 4 3
6 5 3 7 7 8 9 11 11 7 4 4 6 4 3 2 2 3 3 2 9 15 15 14 15 15 14 13 13 14 13 15 18 18 19 20 20 20 19 20 22 22 22 22 23 23 21 19 18 18 17 16 15 14 14 14 14 14 13 13 13 13 13 13 12 12 12 11 10 9 9 9 9 11 12 13 13 11 10 10 10 10 10 9 9 8 8 8 7 7 5 5 4 5 4 4 4
7 5 8 8 7 7 9 12 10 7 5 5 8 5 3 3 4 1 4 4 14 17 15 14 13 14 13 12 12 13 14 16 19 18 18 19 19 20 19 20 21 21 22 22 23 23 21 20 19 19 17 16 16 15 14 14 15 14 14 14 13 13 14 14 12 12 12 12 11 10 9 8 9 10 11 13 12 9 8 8 9 9 9 8 8 8 7 7 6 5 4 3 3 4 4 5 6
7 9 12 8 7 6 9 12 8 7 5 6 10 7 4 3 5 4 5 5 15 17 16 15 13 12 12 12 11 11 14 17 19 18 18 18 19 20 20 21 21 20 22 24 24 23 22 21 20 19 17 17 16 15 15 15 14 14 14 14 13 13 14 14 13 12 13 13 12 11 9 8 8 9 11 12 10 8 7 8 8 8 8 8 7 7 6 5 5 3 3 3 3 3 4 5 7
6 12 12 6 5 5 7 9 6 5 6 6 10 6 3 0 3 5 3 4 14 18 16 15 13 11 11 11 10 9 13 17 18 17 18 20 21 22 22 22 23 21 22 24 24 23 22 22 21 20 18 17 17 16 15 14 14 14 15 15 13 13 14 14 14 13 13 14 13 11 9 8 9 9 10 10 9 7 7 7 7 8 7 7 7 6 6 5 4 3 2 2 2 3 4 5 6
7 9 9 6 4 2 3 7 6 7 8 8 7 4 2 4 3 3 1 2 14 17 15 15 12 11 11 10 10 9 12 16 16 18 20 22 22 24 24 23 24 23 23 23 24 24 23 22 22 21 19 17 17 16 15 14 13 14 14 14 14 13 14 14 14 13 14 14 13 11 10 9 9 9 9 9 9 7 7 7 7 7 7 6 6 6 5 4 3 2 2 1 2 3 4 4 5
7 6 3 3 2 2 2 6 8 7 8 10 5 3 4 6 4 2 2 1 11 17 15 15 12 11 12 10 11 10 11 16 19 21 23 24 24 24 25 25 24 24 24 24 25 24 23 23 23 23 21 18 17 17 16 15 14 14 15 15 14 13 13 14 14 14 14 14 13 11 10 9 8 8 8 9 9 8 7 7 7 7 7 6 5 5 4 3 2 2 1 0 2 3 4 4 4
4 4 1 1 2 3 3 6 8 6 8 8 3 3 4 7 6 2 1 2 8 16 15 14 12 12 13 10 11 10 10 17 21 22 24 24 24 24 26 26 25 25 25 26 25 24 23 23 24 24 22 20 19 19 16 15 14 14 15 15 15 13 13 14 14 14 14 13 13 12 10 9 8 7 7 8 9 8 7 7 7 7 7 6 6 5 4 2 1 1 1 1 2 3 4 4 4
2 3 3 2 3 3 3 3 6 7 11 5 2 4 4 5 6 5 5 4 7 14 14 13 11 11 13 10 10 10 9 12 15 20 24 24 24 25 26 27 27 27 27 27 26 25 24 23 24 24 23 21 20 20 17 15 14 14 15 15 15 14 14 14 15 14 13 13 12 12 10 9 8 7 8 8 8 8 7 7 7 7 7 7 6 5 3 1 0 1 2 2 2 2 3 3 4
3 2 3 2 4 5 4 2 4 7 11 5 1 5 5 5 7 8 8 6 7 14 13 12 11 10 11 10 9 9 8 8 10 17 23 24 25 26 27 28 29 28 27 27 26 26 25 24 24 23 22 21 20 20 18 16 14 14 15 15 15 15 15 15 15 15 14 13 13 12 10 9 8 8 8 8 7 7 6 6 7 7 7 6 6 5 3 2 2 2 2 3 2 2 2 3 4
5 3 3 2 3 4 5 3 5 9 9 6 5 5 5 7 8 8 9 6 7 13 13 11 11 11 11 10 9 8 8 8 10 19 25 25 26 26 27 28 29 28 27 26 26 25 24 24 23 23 22 20 20 20 19 17 14 14 15 15 16 16 15 15 16 15 14 14 13 12 11 10 9 9 8 8 7 6 6 7 8 7 7 6 6 5 4 3 2 1 2 2 2 3 4 3 4
4 4 5 6 5 4 5 3 6 11 9 7 7 6 6 9 9 8 6 4 6 11 11 10 10 11 10 10 9 8 8 8 13 22 26 26 27 27 28 28 28 28 28 27 25 25 24 24 23 23 23 21 19 20 20 19 16 15 15 16 17 17 17 17 16 16 15 13 13 13 12 11 10 9 9 8 7 8 8 8 8 7 6 6 6 5 5 4 3 1 2 3 3 5 5 4 4
2 2 3 7 6 5 6 5 6 10 6 5 6 4 5 8 8 5 2 1 4 8 11 11 11 11 10 10 10 9 9 9 15 23 26 27 28 28 28 27 26 26 27 28 26 25 25 25 24 24 24 22 21 21 21 20 18 17 17 18 18 19 19 18 17 16 16 14 13 14 14 13 11 9 9 9 9 10 10 9 9 8 7 6 5 5 5 4 4 3 3 3 4 6 5 3 4
1 1 3 5 4 3 4 5 8 8 3 2 6 8 6 6 7 6 3 2 2 4 9 12 13 12 10 10 10 9 8 9 13 18 23 26 26 27 27 26 26 26 26 28 28 26 25 25 25 24 24 24 22 22 21 20 19 19 19 19 19 20 20 18 17 16 15 14 13 15 15 14 12 10 9 9 10 11 11 10 9 8 8 6 5 5 5 5 5 5 4 4 5 5 4 3 4
2 1 3 4 3 2 6 7 9 7 3 3 8 8 4 5 6 6 4 1 3 3 3 7 11 12 10 10 9 9 9 9 11 14 19 24 25 26 26 25 27 29 29 29 28 27 26 25 25 24 25 25 24 23 21 20 19 19 18 19 20 20 19 17 15 14 13 13 13 14 15 14 13 12 10 8 10 12 11 10 10 9 9 8 6 6 6 6 6 6 5 4 4 4 3 2 3
2 3 3 3 5 4 4 5 8 7 5 7 8 5 3 3 6 5 3 3 2 5 4 2 5 9 11 10 8 10 11 11 12 13 15 20 23 25 25 26 27 28 28 29 29 28 27 27 26 25 25 25 25 23 21 20 19 19 18 18 19 18 17 17 15 14 13 12 13 14 15 15 15 15 13 10 9 11 11 11 10 11 12 10 7 6 7 7 7 7 6 4 3 4 5 4 3
2 4 4 3 6 5 4 8 11 10 7 8 8 4 2 0 4 4 1 2 2 4 5 4 3 3 5 7 8 9 11 12 13 13 14 17 21 23 25 27 27 27 28 29 30 30 29 28 27 26 25 25 24 23 21 20 19 19 18 17 18 15 14 15 16 16 16 15 14 15 16 16 17 17 15 12 10 10 11 11 9 10 12 11 8 7 7 7 7 6 5 3 2 4 6 6 4
3 4 8 8 7 6 9 13 11 6 3 6 6 3 1 2 3 5 4 2 4 6 5 6 6 3 3 5 7 8 8 11 13 14 15 17 20 22 24 26 27 27 29 31 32 32 31 30 29 26 25 25 24 22 21 20 20 21 20 19 19 16 15 16 17 18 19 18 16 16 16 16 16 17 17 14 12 11 12 11 10 10 12 11 9 8 8 7 7 6 4 2 2 4 6 7 5
3 4 9 10 7 10 15 15 9 4 4 8 6 1 1 3 5 7 6 7 9 8 6 7 7 5 4 4 6 6 6 8 12 14 15 17 21 22 22 24 27 29 30 31 32 32 32 31 30 28 27 26 25 23 22 21 21 21 20 21 20 18 18 18 18 18 18 18 16 15 15 15 15 17 17 16 15 13 12 12 11 11 11 11 10 10 10 9 8 6 4 2 1 3 4 5 4
4 4 7 9 8 13 17 15 7 3 6 4 5 0 4 3 5 7 7 8 10 9 9 8 8 7 5 5 5 6 7 8 11 13 14 17 21 23 24 25 28 30 31 31 31 32 33 32 31 29 28 27 25 23 23 22 21 21 20 20 20 19 19 18 18 18 17 16 15 14 14 14 14 15 17 17 16 15 13 12 12 12 13 11 11 12 11 10 9 7 4 3 2 2 3 4 4
7 5 3 5 10 15 16 12 5 4 7 4 5 1 4 2 3 6 8 8 10 12 13 11 11 11 7 6 6 6 6 7 10 13 14 18 22 26 28 28 28 30 32 32 33 33 33 33 32 31 29 28 26 24 23 21 20 20 19 19 20 20 19 17 17 17 17 15 15 14 13 13 13 14 15 15 16 16 14 12 11 13 13 12 12 12 11 10 10 7 5 4 3 2 3 3 3
7 5 2 4 5 9 7 5 3 4 5 6 8 4 3 2 2 6 9 8 11 14 12 12 13 13 10 7 7 6 5 6 9 12 15 21 25 28 30 30 29 29 32 33 33 33 34 33 32 32 31 29 27 26 25 22 20 21 21 20 21 20 19 18 17 17 17 16 15 14 13 13 13 13 14 14 14 15 14 12 11 13 12 10 11 12 11 10 9 7 5 4 4 4 4 3 2
4 4 2 8 7 6 6 4 4 4 1 5 10 8 4 1 3 7 9 7 10 13 10 10 13 13 12 8 6 8 6 5 8 10 14 21 27 29 29 29 29 29 30 30 31 32 33 33 33 33 31 29 28 28 27 24 22 21 22 21 21 20 19 18 17 17 17 17 16 15 13 13 13 14 14 13 13 14 12 11 11 12 11 10 10 11 10 10 8 6 5 4 5 5 5 5 3
3 3 4 5 4 5 6 4 5 3 3 4 7 7 2 1 4 7 8 4 6 12 12 13 15 15 14 10 8 8 6 5 7 10 12 15 19 23 25 26 27 28 28 28 30 32 32 32 32 32 30 28 27 28 28 26 23 22 22 22 21 20 19 18 18 18 18 18 17 16 14 13 14 14 14 13 13 13 12 11 11 12 11 10 10 10 9 9 7 6 6 6 6 7 7 6 5
4 4 5 5 1 2 3 2 2 1 5 4 7 8 1 4 4 2 6 5 5 9 10 12 15 15 14 12 9 7 6 5 6 9 11 10 13 18 22 24 25 27 29 29 29 30 31 32 32 31 30 28 26 27 28 27 25 23 22 22 21 20 19 17 17 18 18 19 18 17 16 15 15 15 15 14 13 12 12 11 11 12 12 11 11 10 9 9 8 7 7 7 8 9 9 8 7
6 6 5 4 3 3 2 1 1 2 6 5 7 10 3 4 2 4 5 5 6 7 7 8 10 12 12 11 8 5 5 5 5 8 10 10 13 19 23 24 26 27 29 30 30 30 31 31 31 31 30 28 26 26 28 27 25 23 22 23 21 20 20 18 17 17 17 18 18 17 16 16 15 16 16 15 13 12 12 12 11 11 12 12 11 10 10 10 10 9 9 9 11 11 11 10 9
4 5 5 5 4 4 4 4 3 3 3 1 5 7 3 2 2 5 6 3 4 6 5 7 5 2 3 3 2 3 5 4 3 5 9 11 16 21 23 25 27 28 29 29 29 29 30 30 31 31 30 29 27 27 28 28 25 23 23 23 21 20 20 19 18 18 17 18 19 18 17 17 16 15 15 14 13 13 13 12 11 11 13 13 11 10 10 11 11 10 10 11 12 12 11 10 10
2 3 5 3 5 5 4 4 5 5 3 2 3 3 2 2 3 5 4 3 7 9 7 9 8 7 7 5 3 2 1 1 3 3 6 11 17 20 21 24 27 28 29 29 29 30 30 31 32 32 32 31 28 27 29 29 26 24 23 23 21 20 20 20 19 19 19 19 19 19 19 18 17 15 15 15 14 14 14 13 12 12 13 14 12 11 11 12 13 12 11 12 12 11 10 10 10
1 2 4 4 3 6 5 1 1 5 4 1 1 0 3 1 2 3 3 6 7 7 7 7 7 9 10 7 4 3 3 1 0 3 3 5 12 16 19 23 25 26 28 29 30 32 33 33 33 33 32 32 30 29 29 30 27 25 25 24 22 21 21 21 20 20 20 20 19 20 19 19 18 16 15 15 15 15 14 14 14 13 14 14 14 12 12 13 14 14 13 13 13 11 11 11 10
4 3 4 3 1 3 4 3 2 3 3 1 1 1 2 1 1 2 3 6 5 5 7 6 6 8 9 8 7 5 5 3 3 3 4 3 9 13 15 20 22 24 27 30 32 34 34 34 34 34 32 32 33 32 31 30 29 27 27 26 25 23 22 21 20 19 20 20 20 20 20 20 19 17 17 16 16 16 15 15 15 14 15 15 15 13 12 13 13 14 14 14 14 13 12 12 11
5 5 3 2 2 0 1 3 2 3 3 1 2 2 2 2 2 2 1 4 5 5 6 6 6 7 7 8 9 7 7 6 5 6 4 2 4 8 10 13 18 21 24 27 29 31 31 32 33 34 34 34 34 33 32 31 31 30 29 28 27 26 24 22 19 19 20 20 20 21 21 21 19 18 18 17 17 16 16 16 15 15 16 16 16 15 13 13 14 14 14 15 14 13 13 14 13
4 3 2 1 2 3 2 2 3 4 4 2 1 1 2 3 3 1 1 2 5 6 5 6 7 6 6 6 8 7 7 7 5 3 4 5 3 4 8 13 16 19 22 24 25 26 27 28 29 31 31 30 31 32 32 31 31 30 30 29 27 27 26 24 20 18 19 21 21 21 21 21 20 19 18 18 18 17 17 17 16 15 16 17 17 17 15 14 14 15 15 15 15 14 14 15 15
3 3 2 1 1 2 2 1 2 4 4 3 3 1 3 3 2 2 3 4 6 7 8 8 8 8 7 5 5 5 5 6 6 6 3 5 6 5 8 12 14 14 17 22 24 25 25 24 24 25 26 25 26 28 29 30 30 30 29 29 27 27 27 26 22 19 19 20 20 21 22 22 21 20 19 19 19 19 18 18 17 17 17 17 18 18 17 16 15 16 16 16 15 15 16 17 17
5 4 3 3 3 3 3 1 2 2 4 4 4 3 4 4 0 3 5 5 7 9 11 11 10 10 8 5 6 5 5 6 5 7 5 4 7 9 6 9 11 12 13 17 21 22 22 20 20 22 23 24 24 24 25 25 26 27 27 27 26 26 27 26 24 21 20 20 20 20 21 21 22 21 20 20 19 19 19 19 19 19 18 18 18 18 18 17 16 16 16 16 17 16 16 17 17
Wind_Direction
151 139 141 143 136 128 111 14 10 46 139 191 251 16 65 85 90 113 111 140 129 128 197 104 121 136 141 126 134 114 58 116 155 148 188 163 144 151 158 160 159 153 147 144 142 139 142 151 157 147 138 135 130 126 123 126 128 127 124 120 112 105 103 104 107 108 109 113 117 119 121 120 120 123 122 123 124 124 124 124 125 121 117 112 109 107 106 106 107 109 114 117 118 119 119 116 111
148 139 135 134 138 128 59 5 73 151 154 157 253 60 70 57 75 123 132 136 109 138 126 96 95 82 100 110 120 107 49 23 94 118 110 134 137 147 156 159 157 151 147 145 144 139 141 150 157 151 142 140 133 126 128 135 136 134 130 125 121 115 109 106 107 109 110 111 115 121 124 123 122 123 124 125 125 126 127 126 127 125 121 115 110 108 105 107 112 112 114 118 119 119 116 112 109
144 138 136 135 132 97 1 68 76 170 126 142 48 11 24 90 104 112 101 20 60 128 111 98 89 63 92 100 91 82 73 49 107 111 116 136 135 149 157 158 156 151 146 146 146 143 144 149 155 155 147 142 133 130 136 143 142 136 130 124 122 117 112 110 107 108 113 115 117 122 126 128 128 125 125 126 128 130 130 129 129 127 122 117 115 113 111 114 117 114 115 117 117 115 112 111 109
143 141 147 145 106 302 178 93 170 161 110 162 137 22 349 91 109 85 53 340 59 111 102 105 79 349 89 104 86 71 102 103 120 121 128 146 148 153 157 157 155 149 146 148 149 148 149 151 155 156 151 146 140 140 146 150 145 136 127 121 118 116 114 113 112 111 114 118 119 123 127 131 133 131 129 128 129 131 130 131 130 128 124 119 118 120 120 121 121 117 117 117 115 113 110 109 107
144 143 162 158 86 152 190 118 198 141 139 204 139 156 134 84 96 81 61 15 44 100 130 124 91 21 76 85 90 90 115 119 131 133 128 145 150 152 156 156 154 149 149 152 151 151 151 152 156 156 155 153 150 150 152 152 146 137 127 122 118 117 118 117 118 118 119 121 122 126 129 132 135 135 134 133 132 130 130 131 130 128 126 122 122 124 123 123 122 118 118 118 116 114 110 106 105
143 131 154 171 38 99 236 134 128 98 252 265 136 149 125 100 103 111 108 68 35 93 148 122 115 106 78 58 58 89 134 125 131 138 133 142 150 153 154 154 153 150 151 154 155 153 150 153 157 156 156 157 156 155 155 155 151 142 133 130 126 122 122 122 123 125 126 126 128 130 133 134 136 137 135 135 135 133 131 132 130 127 124 122 125 125 122 123 123 119 118 119 117 116 113 110 109
149 132 148 188 5 167 249 111 108 71 347 329 115 126 108 97 116 124 118 92 28 33 95 111 120 107 80 85 72 75 119 125 133 140 140 144 150 152 152 153 153 152 154 156 156 152 150 154 156 155 157 158 159 161 164 160 154 147 139 132 127 123 122 125 126 126 130 130 132 135 135 135 136 137 137 138 137 135 134 136 133 128 124 119 123 129 128 126 124 121 119 119 117 116 114 114 115
168 161 191 164 134 155 5 98 99 66 34 3 64 93 88 53 353 117 112 102 111 67 102 123 117 96 64 74 90 73 95 118 135 137 140 144 148 150 152 154 153 154 157 158 155 152 150 154 153 153 156 159 162 168 173 163 152 147 136 127 124 122 121 125 128 129 134 135 136 140 139 136 136 138 139 140 139 137 137 138 135 131 126 122 132 139 132 127 123 120 121 122 117 114 114 115 117
182 197 243 134 162 109 90 83 82 73 89 65 61 76 67 49 0 65 88 88 132 112 114 138 105 97 97 82 95 80 90 119 131 133 140 144 147 148 152 157 157 157 159 159 155 152 152 154 153 154 158 162 168 174 173 160 153 144 131 127 127 126 126 130 134 134 135 136 138 141 141 139 137 139 140 140 139 138 137 137 136 133 128 131 141 138 130 130 127 121 123 125 116 113 116 117 117
203 215 177 187 155 90 88 80 94 83 101 92 70 75 37 29 39 0 53 118 128 108 104 100 83 107 119 94 90 95 111 127 130 132 141 142 145 148 152 158 161 160 160 160 157 154 152 153 155 159 164 166 172 174 167 159 153 144 136 135 131 131 134 137 136 134 133 135 138 137 137 137 136 138 138 138 137 137 136 136 137 133 131 136 139 131 131 133 129 125 124 122 114 112 117 116 117
316 226 169 16 61 71 95 94 116 98 113 113 85 69 348 287 107 318 143 122 111 105 111 95 97 115 110 92 78 112 124 132 133 135 141 142 146 150 152 156 161 160 158 158 155 153 152 155 162 165 167 167 173 169 161 159 154 149 141 138 136 138 137 136 135 133 134 136 136 134 134 135 135 136 134 135 135 136 136 137 135 131 132 136 133 130 134 134 131 128 123 122 116 113 115 114 117
322 262 85 74 58 76 101 97 118 114 122 126 139 213 229 205 111 194 145 126 112 115 127 108 126 128 105 101 109 121 129 135 137 139 142 144 147 150 153 155 158 157 155 154 153 154 156 162 168 166 165 167 170 165 159 156 156 153 144 142 143 142 138 136 134 132 133 134 134 133 134 134 134 134 132 132 133 135 136 135 133 131 133 136 135 134 135 135 134 129 126 125 118 115 116 115 118
282 224 90 85 66 100 105 112 132 121 124 128 153 209 225 170 153 196 132 125 123 128 140 131 144 132 105 111 119 130 136 142 142 141 143 144 146 148 151 153 156 155 153 152 153 158 162 166 166 164 165 168 167 163 162 160 159 154 148 152 149 143 141 139 134 131 131 131 134 134 135 134 135 133 131 131 131 134 135 135 133 132 135 136 135 134 134 136 134 131 131 127 119 117 118 117 119
203 243 106 99 61 101 110 130 147 134 141 152 131 159 230 301 148 256 127 126 123 132 119 125 142 114 113 133 133 146 147 148 146 143 143 141 143 145 147 151 154 153 152 153 157 163 165 165 165 165 168 168 167 166 164 165 165 160 157 159 152 148 144 138 134 131 131 131 134 136 135 134 133 133 133 132 132 133 134 136 135 136 137 137 132 131 135 137 136 137 136 129 122 120 120 118 120
193 339 88 115 86 117 135 137 140 136 156 167 149 162 191 20 72 24 124 124 108 118 106 127 160 109 144 160 147 158 152 149 145 142 141 138 140 140 142 146 148 150 153 157 161 165 164 165 167 168 171 170 170 171 167 165 166 164 159 155 151 149 143 135 133 131 131 131 129 130 130 129 130 132 132 133 135 135 135 135 135 136 136 135 130 129 135 137 139 140 137 133 128 126 122 117 120
172 42 62 96 140 161 161 133 126 141 170 168 154 164 139 35 23 69 271 90 109 130 111 150 212 143 159 156 136 148 148 145 141 141 138 134 135 134 137 141 145 152 158 162 164 165 166 169 171 170 173 173 173 172 169 167 164 159 155 151 145 143 140 135 134 133 132 129 126 127 128 129 128 126 126 130 135 136 136 133 133 134 133 133 130 130 135 137 142 142 139 137 132 128 124 118 121
87 72 34 34 157 188 164 152 155 157 157 148 154 187 149 104 337 309 293 71 123 140 98 110 139 119 130 127 136 142 143 141 140 140 135 133 132 131 137 142 150 158 164 167 166 168 171 173 174 174 177 177 173 170 168 167 158 151 155 152 141 142 143 139 139 137 134 128 127 130 127 127 125 125 125 126 129 130 132 131 131 132 131 132 132 133 136 140 145 145 143 140 134 129 127 124 125
122 122 121 120 201 187 165 162 157 143 148 154 165 190 155 138 177 276 116 103 118 116 91 89 83 95 110 125 136 140 142 141 141 141 138 137 137 138 144 152 159 163 165 169 171 174 174 175 177 178 179 177 173 171 170 163 149 148 156 153 144 149 149 144 146 141 136 131 130 132 130 129 129 129 127 122 122 124 126 128 130 130 130 131 132 134 137 142 147 149 148 143 138 133 132 135 132
177 170 119 196 219 200 158 146 146 148 147 151 162 172 159 155 162 199 136 130 127 114 114 111 101 104 115 130 139 142 145 146 146 145 144 146 147 149 152 158 163 164 166 170 176 178 177 178 178 178 176 174 174 173 171 160 147 149 155 153 152 157 152 149 150 142 138 135 132 134 134 132 129 127 125 121 120 122 124 126 125 124 126 126 128 133 134 141 146 148 150 146 144 138 138 145 142
195 154 179 231 206 183 136 132 140 142 140 145 155 157 146 153 145 103 138 133 133 133 138 132 126 130 133 139 143 147 150 151 151 149 149 151 153 156 157 161 163 164 168 171 176 179 181 180 180 180 176 174 174 171 168 160 150 151 155 156 159 161 156 152 151 145 141 138 135 136 136 134 132 130 129 124 121 121 123 121 120 121 123 125 129 132 132 137 143 146 150 151 150 144 143 147 147
184 169 200 204 168 150 109 110 113 118 132 143 143 140 135 146 52 127 145 137 143 160 158 150 144 142 143 146 149 152 154 153 155 154 153 153 156 160 161 163 163 165 167 170 177 181 184 183 182 181 177 174 172 170 167 164 158 153 157 160 160 159 157 155 153 150 146 144 141 139 140 140 139 137 134 130 126 124 120 116 117 121 126 129 133 135 136 138 143 147 152 155 155 151 143 142 147
214 218 201 157 159 132 109 106 116 117 119 130 136 146 141 143 123 132 159 156 163 166 159 154 147 145 146 149 151 154 154 155 159 158 157 157 159 162 162 162 161 164 166 171 178 182 184 183 183 180 175 173 172 174 172 169 165 158 159 161 161 159 159 159 156 156 153 149 147 145 146 145 142 140 141 137 132 126 119 117 117 121 128 131 134 138 139 141 145 148 150 156 160 156 143 138 144
233 256 203 157 152 123 129 122 120 115 115 133 136 135 126 130 132 105 181 161 167 146 145 149 146 144 145 147 151 154 156 161 163 162 162 162 163 164 164 163 162 165 169 174 178 178 179 180 181 179 174 173 175 179 177 174 171 162 160 161 164 163 164 164 161 161 158 152 152 152 150 146 144 146 148 143 135 129 123 120 120 123 130 131 133 138 140 144 147 148 152 160 162 159 149 150 154
208 279 209 154 142 122 124 118 113 106 117 135 116 127 141 150 144 80 165 172 267 133 136 142 141 142 145 149 154 156 161 165 165 164 166 166 168 167 166 166 165 167 169 175 176 174 176 177 179 180 177 177 178 181 181 178 174 167 164 164 166 166 167 168 166 167 162 156 158 158 154 149 147 149 151 146 139 135 130 127 126 127 131 133 135 139 143 147 150 153 159 166 167 166 163 165 171
212 239 165 112 101 110 113 111 108 104 114 108 117 143 137 132 130 104 172 217 173 133 134 139 141 144 149 154 156 158 164 165 164 162 165 169 168 167 167 167 166 167 170 174 174 173 178 180 181 183 180 179 181 183 184 181 177 171 169 167 167 169 170 171 171 172 169 164 163 162 160 155 150 151 153 150 144 140 135 133 132 132 134 137 138 140 146 151 156 163 169 178 182 186 186 189 203
215 207 93 80 85 105 108 100 96 96 99 93 120 122 45 0 97 82 293 218 141 132 137 145 146 150 154 157 157 160 163 164 166 163 164 169 168 168 168 168 168 169 171 173 173 175 181 183 186 188 184 182 183 185 186 184 180 175 173 171 171 173 173 175 177 177 176 171 168 166 166 162 157 157 158 154 148 143 140 140 139 140 142 142 144 144 148 155 163 170 181 194 205 216 217 228 248
194 163 83 104 122 114 102 97 101 108 97 100 122 111 67 322 334 100 257 186 140 136 143 150 151 155 157 158 159 162 165 168 169 163 161 166 169 171 171 172 171 171 171 172 175 178 183 186 189 190 187 186 186 188 187 184 182 179 178 176 177 178 176 180 184 183 181 177 171 169 171 169 163 166 167 162 157 150 143 145 145 147 147 145 144 144 146 152 157 162 179 198 217 228 237 252 265
164 129 88 117 137 109 100 104 124 123 83 91 116 109 82 333 307 195 189 158 144 142 148 155 157 161 160 160 161 165 169 171 170 163 161 168 173 174 175 177 174 171 173 175 178 180 182 186 188 188 189 191 190 192 191 187 185 184 182 180 182 182 179 184 187 185 183 179 173 171 172 170 168 172 173 171 170 162 151 149 150 152 150 146 141 140 143 146 146 149 169 196 218 233 254 269 272
148 129 105 118 105 85 93 104 137 121 91 115 121 102 73 145 250 197 165 139 148 147 152 159 162 166 164 163 164 170 174 173 173 169 168 172 177 178 180 182 178 174 175 178 181 182 184 186 186 185 188 191 192 194 195 191 186 184 184 185 188 185 180 185 187 185 183 178 175 172 172 171 174 179 181 184 184 175 166 160 157 158 154 149 144 140 140 140 139 138 155 197 226 242 264 271 274
137 124 120 132 88 52 85 110 140 113 120 166 150 116 153 175 211 231 310 132 153 152 158 164 166 169 168 168 169 175 178 175 178 176 174 177 179 181 182 185 183 178 175 178 182 185 185 186 185 184 187 191 191 193 195 194 189 185 188 190 193 188 182 185 186 186 184 179 177 178 179 178 181 188 194 199 197 191 185 174 165 164 162 158 154 147 145 142 127 109 112 193 248 248 256 257 263
127 103 99 140 124 168 141 140 152 120 146 191 178 124 183 183 189 246 329 321 162 157 162 168 167 168 168 172 172 177 179 179 183 180 178 180 180 182 184 185 185 180 175 177 183 186 185 185 185 184 188 192 192 196 195 194 193 187 188 190 192 191 186 185 186 185 185 184 184 186 186 184 188 196 203 206 204 202 193 180 172 171 177 176 170 164 159 149 114 78 60 352 262 258 251 243 244
134 125 105 270 120 147 145 158 176 150 160 202 197 128 179 180 177 165 70 302 177 160 165 171 165 163 167 174 175 178 181 180 182 181 181 183 180 182 184 184 185 182 178 179 182 183 181 183 185 185 189 192 193 198 197 195 194 190 189 187 189 193 189 186 187 188 189 189 190 192 192 190 196 205 210 209 206 202 190 182 180 181 187 188 184 182 174 157 98 65 31 346 291 276 261 246 242
194 146 150 195 135 148 143 161 205 160 146 192 240 149 158 173 179 161 162 243 190 165 168 170 166 164 167 175 177 177 179 178 179 179 181 183 182 183 184 184 185 185 182 180 181 180 180 182 185 188 191 193 194 197 199 197 194 193 192 187 188 191 189 187 189 191 193 193 193 193 193 194 200 205 206 205 201 196 188 183 187 190 191 191 190 188 180 177 3 14 0 345 328 308 287 273 271
200 131 116 169 143 159 159 161 218 158 143 161 177 161 158 157 171 167 176 213 186 169 171 171 169 168 171 178 181 179 174 177 178 177 179 181 182 183 185 185 185 185 182 181 182 181 182 182 185 190 191 192 193 195 199 197 192 193 192 189 188 189 189 189 190 194 195 196 194 191 192 194 195 197 196 194 191 191 189 188 193 193 191 193 191 191 194 217 275 308 347 352 341 336 325 305 296
161 156 123 116 136 177 187 179 181 163 155 155 150 166 157 144 160 173 185 197 181 174 172 172 172 172 178 183 186 182 174 181 182 177 177 179 180 181 183 184 182 182 181 182 183 182 183 184 186 190 190 191 193 196 198 196 191 188 189 189 188 187 187 187 190 194 196 197 197 194 191 190 188 190 189 187 186 188 188 186 187 187 189 194 198 203 209 222 251 297 338 343 329 328 329 318 310
121 165 160 151 161 203 199 164 162 162 156 162 169 167 152 152 166 178 184 178 170 175 173 173 177 179 182 188 192 184 177 186 182 176 176 176 178 178 180 182 180 179 179 180 181 182 185 185 185 188 189 190 192 195 197 195 193 189 188 188 187 187 186 187 190 192 194 196 198 195 191 189 187 185 187 188 186 183 182 183 183 186 190 191 202 210 210 219 236 268 297 312 312 315 322 323 323
69 122 157 162 168 196 181 150 160 159 144 173 172 116 121 149 159 151 86 49 166 172 178 178 180 184 186 190 192 185 184 185 176 175 175 175 177 177 177 179 178 176 177 179 180 185 188 186 185 186 188 190 191 192 194 194 192 188 188 189 188 188 187 189 191 193 195 196 197 196 193 193 191 189 194 194 191 186 184 187 189 191 193 192 205 217 221 229 232 248 275 296 308 314 322 327 324
290 111 133 160 173 191 147 124 151 151 103 130 118 88 102 128 135 124 103 206 208 172 183 185 185 186 189 191 186 184 185 174 168 171 174 174 174 174 174 175 175 174 176 179 180 186 190 188 187 186 187 189 190 190 191 192 191 189 188 188 186 186 187 190 191 192 195 196 196 196 196 197 196 197 200 200 199 197 195 195 197 198 197 198 211 222 227 228 227 239 263 285 299 309 318 339 341
240 138 135 166 181 109 82 107 146 144 68 87 101 98 106 96 101 106 114 182 331 329 216 193 189 185 190 193 180 179 178 165 164 167 171 173 172 171 171 173 176 176 177 179 182 186 190 189 188 187 186 188 189 188 188 189 190 190 188 184 182 182 187 191 191 190 192 195 195 196 199 201 200 200 202 204 204 203 202 201 202 208 205 203 211 220 220 219 222 230 246 268 293 316 331 359 1
211 144 140 180 187 151 94 123 132 106 99 122 110 93 74 86 104 103 119 122 16 304 294 282 203 190 198 195 175 175 172 162 165 166 169 172 171 170 170 174 177 175 176 178 182 186 190 189 187 187 186 187 190 188 187 188 188 189 188 184 182 184 189 195 200 200 197 197 199 202 204 204 204 202 202 205 203 201 202 202 204 209 207 206 210 216 216 213 214 221 233 255 303 342 354 358 353
241 176 183 204 192 174 130 128 113 81 89 127 120 77 0 132 128 131 182 121 121 261 282 289 250 222 216 193 171 178 173 161 165 167 169 170 170 172 173 174 175 174 176 179 183 186 189 190 187 187 187 188 190 189 187 188 188 188 187 183 182 185 190 195 201 202 201 200 203 205 205 205 205 203 204 206 205 202 201 204 208 207 205 208 212 216 216 212 210 218 229 254 329 348 349 347 336
288 207 200 210 198 151 125 131 125 93 112 174 162 107 333 270 165 175 197 181 201 222 246 252 232 221 232 192 174 183 177 165 166 168 170 171 171 173 174 175 174 175 178 181 184 185 188 190 188 189 191 190 190 190 189 189 189 187 185 182 181 182 183 187 194 195 197 201 204 206 205 205 205 204 206 208 208 207 204 210 218 212 206 208 216 221 220 218 213 215 224 249 339 345 344 346 335
284 237 204 208 187 140 139 147 150 134 157 200 215 147 135 235 217 195 188 196 209 213 223 236 228 213 208 198 182 176 175 170 167 168 171 171 171 172 175 177 176 177 180 182 183 184 186 189 189 190 192 193 192 190 191 192 191 190 190 189 188 188 186 188 195 196 198 202 205 206 203 204 206 206 208 210 212 212 210 217 226 222 214 214 221 223 223 222 211 206 211 226 314 342 350 0 356
245 228 185 199 172 146 157 163 163 139 117 156 250 223 126 219 227 185 182 202 213 215 218 225 228 225 210 196 196 177 171 174 170 169 172 173 174 174 176 179 180 179 179 181 181 183 186 188 189 190 192 193 192 190 191 194 194 193 194 195 195 197 197 194 197 200 202 204 205 206 203 204 208 209 210 212 214 217 216 221 229 227 222 224 226 225 225 218 206 204 209 222 254 312 335 1 26
247 227 183 213 178 160 164 164 150 123 115 144 248 213 113 247 235 157 172 206 220 216 213 213 215 223 217 194 200 187 170 176 174 172 175 176 177 177 178 180 182 180 179 181 183 184 186 187 187 188 190 191 190 189 190 195 199 198 197 198 198 201 204 200 198 200 203 205 208 209 209 210 211 211 212 215 217 219 220 225 228 223 224 232 230 227 222 211 205 207 210 225 241 263 296 322 29
239 220 312 9 129 139 132 122 87 102 128 178 214 193 118 250 241 159 174 208 222 214 208 207 207 215 218 200 198 192 169 174 178 176 179 179 179 181 180 180 181 181 181 182 183 185 186 186 186 187 189 192 191 191 193 196 202 204 202 202 202 203 205 203 201 202 204 208 211 212 216 217 217 214 212 215 217 218 221 229 229 221 226 237 231 223 215 207 208 213 214 231 243 256 279 287 329
206 160 94 45 61 74 67 46 46 78 185 212 203 193 139 155 227 189 190 207 208 202 199 200 201 209 214 205 197 196 180 172 177 179 184 183 181 181 180 180 180 180 181 181 182 184 185 187 187 189 191 194 195 195 197 200 204 208 208 207 207 207 206 207 207 207 208 210 212 214 219 221 221 217 211 211 215 217 223 235 238 232 233 236 225 216 212 211 216 225 233 243 247 260 274 272 271
165 127 137 84 40 34 44 9 29 76 253 242 192 187 131 196 229 213 219 224 186 193 196 193 196 203 210 206 197 196 186 171 174 178 184 184 181 180 180 181 179 178 179 180 182 183 185 187 188 190 193 195 197 197 198 202 205 209 211 211 213 212 210 212 214 214 213 213 215 217 220 222 223 218 211 213 216 220 229 240 246 242 236 230 219 218 220 219 226 239 246 249 253 265 275 268 254
148 142 138 121 87 29 42 348 20 130 256 251 166 161 204 249 231 260 248 225 181 196 198 191 194 197 204 207 198 191 181 166 170 177 179 179 179 179 180 181 178 177 180 181 183 182 183 187 189 191 194 195 197 198 198 201 207 211 213 214 216 215 215 216 218 218 216 216 218 219 222 223 220 215 213 217 220 223 232 241 248 244 235 225 220 224 229 227 233 245 249 254 259 266 275 268 250
164 161 150 141 133 125 156 182 77 201 252 261 163 161 216 254 241 334 297 231 173 180 186 179 190 196 201 206 193 171 172 169 168 177 177 177 181 182 181 181 180 180 183 182 182 182 183 186 190 192 194 195 197 200 200 202 208 214 217 218 218 216 216 217 217 217 217 217 218 221 226 224 218 215 214 218 221 226 234 241 247 244 233 226 224 229 232 229 235 246 250 258 265 269 274 266 252
172 166 142 150 161 153 169 179 167 184 224 243 144 164 208 228 246 308 306 289 116 121 129 120 117 138 180 196 157 142 173 171 137 167 179 178 183 185 182 181 183 183 183 183 183 183 183 185 190 193 194 194 197 201 202 205 209 214 218 218 218 218 217 216 215 216 219 219 220 224 226 223 220 220 219 221 224 228 236 242 245 242 231 228 231 234 235 232 236 244 248 255 263 270 273 265 257
209 153 115 155 191 153 139 176 172 148 127 115 144 187 249 206 263 311 328 21 81 91 92 102 102 88 84 70 29 0 231 122 78 125 173 177 179 185 185 183 186 185 182 183 184 184 184 186 190 193 196 196 198 201 204 207 210 212 214 214 216 217 218 218 217 221 224 225 226 228 227 223 224 226 225 225 227 230 237 241 242 240 230 226 231 236 239 237 238 244 247 252 258 263 268 269 268
200 119 146 210 192 129 116 114 64 98 112 171 161 270 297 248 297 338 41 59 69 87 93 104 120 118 111 105 89 36 27 24 87 119 129 149 158 174 187 188 187 185 184 184 186 188 188 189 190 193 196 198 199 201 204 208 210 210 211 211 213 215 218 220 222 224 227 228 229 230 229 227 227 229 229 229 229 231 237 239 240 238 228 224 229 235 240 240 241 245 247 251 255 259 264 267 273
131 139 199 217 65 79 104 101 31 66 121 235 343 206 247 200 258 332 67 81 79 97 106 108 119 123 113 101 109 107 86 59 337 18 53 93 135 153 176 189 192 189 187 188 189 192 192 191 192 193 195 198 200 202 204 207 210 210 211 211 213 215 218 223 226 228 229 227 227 228 229 229 229 232 233 232 232 231 234 237 237 235 228 225 230 235 238 241 242 244 247 251 255 259 261 259 265
125 150 177 140 117 329 73 125 149 114 128 208 347 324 252 193 214 291 52 116 126 121 115 112 107 107 104 100 110 115 102 83 30 5 346 353 125 131 137 165 187 192 192 192 192 194 194 194 194 194 197 200 201 202 204 207 210 211 213 216 217 218 219 223 226 229 229 227 227 227 228 229 231 234 235 234 233 232 233 235 234 233 230 228 232 235 238 241 242 244 247 251 254 257 257 254 258
66 81 42 61 131 160 150 139 152 134 138 176 105 343 269 227 215 208 52 123 128 118 103 97 88 80 87 105 116 117 118 119 108 69 333 343 44 102 122 140 166 182 192 195 194 195 197 197 195 195 197 200 200 201 203 207 210 212 215 218 221 221 221 223 226 228 230 231 231 230 230 231 233 236 236 236 237 236 234 234 233 232 231 231 233 235 238 241 244 247 247 249 253 254 255 255 257
90 59 33 77 85 127 136 75 83 125 139 161 147 193 265 260 219 136 104 96 103 101 90 86 85 84 81 88 104 112 112 113 106 91 35 354 33 84 138 146 144 152 176 189 193 196 198 198 197 194 195 197 199 202 203 206 209 212 215 218 220 222 222 224 226 228 230 232 234 234 233 234 236 237 237 237 239 238 237 236 235 234 234 235 235 236 236 238 242 246 247 248 249 250 253 254 256
140 135 171 171 139 126 119 45 321 100 125 156 157 181 258 287 278 111 95 86 86 88 88 83 79 82 78 69 78 86 85 84 81 79 71 20 33 60 110 152 143 125 139 169 183 190 191 191 193 193 194 197 200 202 204 207 209 211 215 218 221 223 223 225 229 230 230 230 232 235 236 237 239 239 239 239 239 239 238 238 237 238 238 239 239 238 236 236 237 241 244 246 246 247 249 250 252
Height
777 779 779 781 781 782 784 786 799 802 802 810 806 806 803 794 794 796 799 796 796 794 788 788 788 790 794 798 801 802 804 807 812 820 821 810 804 809 810 813 815 816 819 821 823 825 825 823 822 823 825 826 828 828 829 829 830 831 832 832 832 833 833 834 835 835 835 836 836 836 837 837 837 837 837 838 837 838 838 838 838 838 838 838 838 838 838 838 839 839 839 839 840 841 841 841 842
777 779 779 781 781 784 788 787 804 809 806 812 806 805 801 793 796 800 800 796 795 791 786 787 788 790 790 791 795 800 805 805 804 806 808 806 807 810 811 814 815 817 819 821 823 825 826 825 823 824 825 826 827 828 829 830 831 831 832 833 833 834 834 835 836 836 836 837 837 837 838 838 838 838 838 839 839 839 839 840 840 840 840 840 840 840 840 840 841 841 841 841 842 842 842 843 843
778 779 779 782 782 785 788 790 805 810 810 814 809 803 798 797 799 799 797 794 791 787 787 788 790 792 793 796 798 803 809 806 803 803 805 808 808 810 813 814 816 818 819 821 823 825 826 826 825 825 826 827 827 828 830 831 832 833 834 834 834 835 835 836 837 837 837 838 838 838 839 839 839 839 839 840 840 840 840 840 841 841 842 842 842 841 841 842 842 843 843 844 844 844 844 844 844
778 780 779 781 784 788 792 799 805 807 812 813 810 804 797 799 798 796 794 791 788 785 788 790 794 792 793 802 802 805 810 807 804 803 805 808 808 810 812 814 817 818 820 822 823 825 827 827 827 827 827 828 828 830 830 832 833 834 834 835 835 836 837 837 837 838 838 839 839 839 839 840 840 840 840 840 841 841 841 841 841 842 843 843 843 842 842 843 844 844 845 845 846 845 845 845 846
779 780 780 780 787 791 793 801 803 805 810 806 807 804 796 797 795 795 793 790 787 787 788 790 798 794 793 801 801 807 810 806 806 803 805 808 808 810 812 815 817 819 821 822 824 826 827 828 829 829 829 829 830 831 831 832 833 834 835 835 836 837 838 838 838 838 839 840 840 840 840 841 841 841 841 841 842 842 842 842 842 843 844 844 844 843 844 845 845 846 846 846 847 846 846 847 847
778 780 780 780 785 787 794 804 805 807 803 796 802 801 794 793 793 794 791 790 788 787 787 789 796 796 800 801 799 804 805 804 805 804 805 807 810 812 813 816 818 820 821 823 825 826 827 829 829 830 830 831 832 832 832 833 834 835 836 836 837 838 838 839 839 839 839 840 840 841 841 842 842 842 842 842 843 843 843 843 843 844 845 845 845 845 846 846 847 847 848 848 848 847 847 848 849
778 781 782 785 787 787 799 806 806 807 799 793 797 796 794 793 790 791 791 792 791 788 786 789 789 795 808 803 802 803 800 803 803 804 806 808 811 813 815 817 818 820 822 823 825 826 828 829 830 831 832 832 833 833 833 834 835 835 836 837 838 838 839 839 840 840 840 840 841 841 841 842 842 842 843 843 843 843 844 844 844 845 846 847 846 846 847 847 847 848 849 849 849 849 849 849 850
778 782 783 789 795 794 802 804 803 804 798 792 792 793 794 793 791 790 792 793 794 791 789 790 786 798 810 802 807 806 800 804 803 806 807 809 812 814 816 817 819 821 823 824 825 827 828 830 831 832 833 834 834 834 834 835 836 836 837 837 838 838 839 840 840 841 841 841 841 841 842 842 843 843 843 843 843 844 844 845 845 846 847 848 847 847 848 849 849 849 850 850 850 851 851 851 852
778 782 783 791 798 800 803 804 802 800 797 794 792 793 792 791 791 791 792 792 792 792 792 790 786 800 811 805 809 806 802 806 806 808 809 811 813 814 817 818 820 821 823 825 826 828 828 830 831 832 833 834 834 835 835 835 836 837 837 837 838 839 839 840 841 841 841 842 842 842 842 842 843 843 844 844 844 844 845 846 846 847 848 848 847 848 850 850 850 850 851 851 852 852 852 853 853
780 782 786 792 798 804 807 806 804 800 797 795 793 792 791 791 791 792 793 794 791 792 793 788 789 800 808 809 811 806 805 808 807 811 811 813 815 816 818 819 821 821 824 826 827 828 829 831 831 833 834 835 835 835 836 836 837 837 838 838 839 840 840 841 841 842 842 843 843 843 843 843 844 844 845 845 845 845 846 847 847 848 849 848 847 849 850 851 851 851 852 852 853 853 854 854 854
785 783 785 795 801 807 809 808 807 802 796 794 794 791 791 790 791 793 793 794 791 794 793 789 797 802 805 811 811 807 807 809 809 811 813 815 816 817 818 820 822 823 825 826 828 829 830 831 832 834 834 835 836 836 836 836 837 838 839 839 840 841 841 842 842 842 843 843 843 844 844 844 844 845 845 845 846 846 847 847 848 849 850 849 849 850 851 852 853 853 853 854 854 855 855 855 856
789 788 787 800 805 806 806 808 808 803 798 795 796 792 790 790 792 795 794 795 792 795 794 791 797 798 807 814 810 808 808 811 811 812 814 816 817 818 819 821 823 824 826 827 828 830 831 832 833 834 835 836 836 837 837 837 838 839 840 840 841 841 842 842 843 843 843 844 844 844 845 845 845 845 846 846 847 847 848 848 849 850 851 850 850 852 853 853 854 854 854 855 856 856 856 857 857
789 790 792 802 802 803 804 807 808 805 804 797 795 791 789 791 793 794 793 795 793 797 795 790 792 794 808 814 809 810 810 812 813 814 816 817 818 819 820 822 824 825 827 828 829 830 832 833 834 835 836 836 837 837 837 838 839 840 841 841 841 842 842 843 843 844 844 844 845 845 845 846 846 846 847 847 848 848 848 849 850 851 852 852 852 853 853 854 855 855 856 856 857 857 858 858 858
786 786 791 801 800 802 803 806 807 808 809 799 794 791 791 793 793 792 792 797 797 796 792 788 789 796 808 811 812 812 810 812 813 815 816 817 819 820 822 823 825 827 828 829 830 831 832 833 834 835 836 837 837 837 838 839 840 841 843 843 843 843 843 843 843 844 844 845 846 846 846 847 847 847 848 848 849 849 850 850 851 852 852 853 853 853 854 855 856 857 857 858 858 859 859 859 859
782 783 789 799 801 803 803 804 805 808 808 798 795 793 793 793 790 792 792 797 798 789 788 791 790 798 806 807 811 810 808 812 813 815 817 819 820 821 823 824 827 828 829 830 831 832 833 834 834 835 836 837 838 838 839 840 842 843 844 844 844 844 844 843 844 845 845 846 846 847 847 848 848 849 849 849 850 850 851 851 852 853 853 854 854 855 856 856 857 858 858 859 859 860 860 861 861
778 783 791 799 802 804 802 801 804 808 804 796 794 793 796 795 789 794 790 790 796 789 790 795 791 795 801 802 804 804 807 811 813 816 817 819 821 822 825 826 828 829 830 831 832 833 833 834 835 836 837 837 838 839 840 841 843 845 845 844 844 845 844 844 845 846 847 847 847 848 848 849 850 850 850 851 851 851 852 852 853 853 854 855 855 856 857 858 858 859 859 860 861 861 861 862 862
777 786 797 800 800 802 799 799 802 803 799 795 794 793 797 798 792 792 787 786 794 795 793 795 792 791 797 800 802 804 808 811 813 816 817 820 821 823 826 827 829 830 831 832 832 833 833 835 835 836 837 838 839 840 841 842 844 845 845 844 844 845 845 846 846 847 848 848 848 849 849 850 851 851 851 852 852 852 853 853 854 854 855 856 856 857 858 859 859 860 861 861 862 862 863 863 863
782 792 799 800 799 795 791 792 793 792 795 796 795 794 796 799 796 791 789 793 795 798 797 796 795 794 797 800 803 806 809 812 814 816 818 820 821 823 826 828 829 830 832 832 833 834 834 835 836 837 837 838 839 840 842 843 845 845 845 845 845 846 847 847 847 848 849 849 850 850 851 852 852 853 853 853 853 854 854 854 855 855 856 856 858 858 859 860 861 862 862 863 863 863 864 864 864
785 792 797 797 793 787 781 784 786 786 791 794 794 793 794 796 795 790 795 801 799 802 803 800 802 801 801 803 805 808 810 813 814 816 818 820 821 823 825 828 829 830 831 832 833 834 835 836 836 837 838 839 840 841 842 843 845 845 845 846 846 847 848 848 848 849 850 850 851 851 852 853 853 854 854 854 854 855 855 856 856 857 857 858 859 860 860 861 862 863 863 864 864 865 865 865 865
783 788 795 792 784 782 779 780 782 782 786 792 794 792 792 793 791 791 797 802 802 805 805 803 806 806 804 805 806 809 811 814 815 817 819 820 822 822 824 827 828 830 831 832 833 834 835 836 837 838 838 840 840 841 842 843 845 846 846 847 848 848 849 849 849 850 851 851 852 853 854 854 855 855 855 855 855 856 856 857 857 858 858 859 860 860 861 862 863 864 864 865 865 866 866 866 867
782 784 790 784 779 783 780 778 779 781 785 790 792 791 793 792 789 792 796 803 807 804 801 801 803 803 804 805 806 809 812 814 816 818 819 821 823 824 825 826 828 830 831 833 834 834 836 836 837 838 839 840 841 842 843 844 845 847 847 848 849 849 850 850 851 851 852 853 854 854 855 855 856 856 856 856 856 857 857 858 858 859 860 860 861 862 862 863 864 864 865 866 866 867 867 867 868
781 781 780 777 777 784 782 778 779 781 785 789 791 792 794 792 790 793 796 803 805 798 796 797 797 799 801 804 806 809 812 814 816 818 820 821 823 824 826 827 829 830 832 833 834 835 836 837 838 839 840 841 841 842 843 845 846 847 848 848 849 850 851 851 852 853 853 854 855 855 855 856 857 857 858 858 858 858 859 859 860 860 861 862 862 863 863 864 865 865 866 867 867 868 868 868 868
782 779 774 775 774 780 782 779 780 782 787 790 790 791 791 794 795 794 796 799 797 791 792 795 796 797 800 804 806 809 812 814 816 817 819 820 822 823 825 827 828 830 832 833 833 835 836 837 838 839 840 841 842 843 844 845 846 848 848 849 850 851 852 853 853 854 855 855 856 856 856 857 858 858 859 859 859 860 860 861 861 862 862 863 864 864 865 865 866 867 867 868 868 868 868 869 869
780 779 774 774 773 776 780 780 783 785 790 790 788 790 793 797 798 797 797 796 792 790 791 795 797 799 801 805 807 810 812 814 816 817 819 820 821 822 824 826 828 830 832 833 834 835 836 837 838 839 841 842 843 844 845 846 847 848 849 850 851 852 853 854 854 855 856 856 857 857 858 858 859 859 860 860 861 861 862 862 863 863 864 865 865 866 867 867 868 868 869 869 869 869 869 870 870
780 779 774 773 775 776 777 781 786 788 790 790 791 795 797 797 797 799 799 795 792 790 793 797 799 801 804 806 808 810 812 814 816 818 820 821 822 823 825 826 828 830 831 832 834 835 836 837 838 840 841 842 843 844 845 846 847 849 850 851 852 853 854 854 855 856 856 857 857 858 859 859 860 860 861 861 862 863 863 864 864 865 865 866 867 867 868 868 869 869 870 870 870 870 870 871 871
776 774 773 777 780 778 778 782 788 790 792 793 797 801 800 797 798 802 800 794 792 792 796 800 801 804 806 808 809 811 813 814 816 817 819 821 823 824 825 826 828 830 831 832 833 835 836 837 838 840 841 842 844 845 845 847 848 849 850 851 853 854 854 855 856 857 857 858 858 859 860 860 861 861 862 862 863 864 865 865 866 866 867 867 868 869 869 870 870 871 871 871 871 871 871 872 872
767 771 776 780 780 779 781 785 786 787 792 795 801 806 804 802 806 808 800 792 791 795 801 802 804 807 807 809 810 811 813 814 815 816 819 821 822 823 824 826 827 829 831 832 833 834 836 837 838 840 841 843 844 845 846 847 849 850 851 852 853 854 855 856 856 857 858 859 859 860 861 861 862 862 863 864 864 865 866 866 867 868 868 868 869 869 870 871 871 872 872 872 872 872 872 872 872
763 771 782 783 778 782 787 789 787 787 794 797 801 808 808 809 814 810 798 793 792 797 804 805 807 808 808 810 811 812 813 814 815 816 818 820 821 823 824 825 826 829 830 832 833 834 836 837 838 840 841 843 844 845 846 848 849 850 852 852 853 854 855 856 857 858 858 859 860 861 862 862 862 863 864 865 865 866 867 867 868 868 869 869 870 870 871 871 872 872 872 872 873 873 873 872 872
762 769 787 791 782 787 792 793 792 791 798 796 798 813 818 815 814 806 796 794 794 799 805 807 808 809 809 811 811 812 813 814 815 816 817 818 820 822 823 824 826 828 830 832 833 834 836 837 838 840 842 843 844 846 847 848 850 851 852 853 854 855 855 857 857 858 859 860 861 862 862 863 863 864 865 866 866 867 867 868 869 869 870 870 871 871 871 872 872 873 873 873 873 873 873 873 873
767 770 784 793 793 796 794 795 795 794 800 793 797 820 827 816 809 802 797 795 797 802 806 807 809 809 810 811 812 813 812 814 814 815 817 817 820 821 822 824 825 828 830 831 833 833 836 837 839 840 842 843 844 846 847 848 850 851 853 853 854 855 856 857 857 859 860 861 862 863 863 863 864 865 865 866 867 867 868 869 869 870 870 871 871 872 872 873 873 873 873 873 873 873 874 873 873
772 777 784 790 801 804 793 794 796 797 800 792 799 822 826 814 806 801 797 797 799 804 807 807 809 809 811 811 812 813 812 813 814 814 817 817 819 821 822 824 825 827 829 831 832 833 835 837 839 840 841 843 844 846 847 848 850 851 853 854 855 856 856 857 858 859 860 861 862 863 864 864 865 866 866 867 867 868 869 869 870 871 871 872 872 872 873 873 874 874 874 874 874 874 874 874 874
775 786 797 794 798 805 794 792 795 796 798 793 802 820 820 810 804 800 798 799 800 803 806 806 808 808 810 811 811 813 812 812 813 814 816 817 819 820 822 823 825 827 828 830 832 833 836 837 838 840 841 843 844 846 847 848 850 851 853 854 855 856 857 858 858 860 861 862 863 864 865 865 866 866 867 867 868 869 869 870 871 872 872 873 873 873 874 874 874 874 874 874 874 874 874 874 874
780 785 801 799 799 806 799 794 791 789 794 797 802 813 816 808 803 800 798 800 801 803 806 805 807 808 808 811 810 811 812 812 813 813 815 817 818 820 821 822 824 826 828 830 831 833 835 837 838 840 841 843 844 846 847 849 850 851 853 854 856 857 857 858 859 860 861 862 863 864 865 866 866 867 867 868 869 869 870 871 872 872 873 873 874 874 874 874 874 875 875 875 875 874 874 874 874
790 787 795 797 797 803 803 798 790 785 793 800 800 804 808 804 801 801 799 801 802 803 806 805 806 807 807 808 809 810 811 812 812 812 814 816 818 819 820 822 823 825 828 829 831 833 834 836 838 839 841 843 844 846 847 849 850 852 853 855 856 857 858 859 860 861 861 862 863 864 865 866 867 867 868 869 869 870 871 871 872 873 873 874 874 874 875 875 875 875 875 875 875 875 875 875 875
791 790 793 798 798 799 800 797 789 787 794 800 804 805 805 803 802 803 801 801 803 803 804 805 805 806 807 807 808 809 810 811 810 810 813 815 817 819 820 822 824 825 828 829 831 833 835 836 838 839 841 842 844 846 848 850 851 852 853 855 856 858 859 860 860 861 862 863 863 865 866 867 867 868 868 869 870 870 871 872 872 873 874 874 875 875 875 875 875 875 875 875 876 876 875 875 875
783 783 787 795 798 797 793 789 784 784 795 802 804 805 805 806 806 806 804 802 803 804 803 805 805 805 806 806 807 807 809 809 808 809 812 814 816 818 820 822 824 825 827 829 831 833 834 836 838 839 841 842 844 846 848 849 851 852 853 854 856 857 859 860 861 862 862 863 864 865 866 867 868 868 869 870 870 871 871 872 873 874 875 875 875 876 876 876 876 876 876 876 876 876 876 876 875
777 779 784 788 791 793 786 785 784 781 795 805 802 805 808 808 808 808 809 807 806 806 805 806 806 805 805 806 806 807 808 806 805 808 811 813 816 818 820 822 824 826 827 829 831 833 834 835 837 838 840 842 844 845 847 849 850 851 852 854 855 856 858 860 860 862 862 863 864 865 866 867 868 869 870 870 870 871 872 873 873 874 874 875 875 876 876 877 876 877 876 876 876 876 876 876 876
775 778 785 789 790 789 783 784 786 782 795 807 804 811 814 809 810 810 810 811 809 808 807 807 805 805 805 805 806 806 805 804 805 808 810 812 815 817 820 822 824 825 827 829 830 832 834 835 836 838 839 841 843 845 846 848 849 850 852 853 854 856 858 859 860 861 862 863 864 865 866 867 868 869 870 870 871 871 872 872 873 874 874 875 875 876 876 877 877 877 877 877 877 877 876 876 876
776 777 783 791 789 786 786 787 787 785 800 814 813 817 819 811 810 812 812 812 812 810 807 805 805 805 805 804 805 805 804 805 806 807 809 812 814 817 820 822 823 824 825 828 830 832 833 835 836 837 839 841 843 845 846 848 849 850 852 853 855 856 858 859 860 861 862 863 864 865 866 867 868 869 870 870 871 871 872 872 873 873 874 875 875 876 876 876 877 877 877 878 877 877 877 876 876
777 778 782 788 784 786 794 796 792 790 801 815 817 819 820 815 813 813 812 810 811 812 808 804 803 804 803 802 802 803 804 806 807 807 809 811 814 816 818 821 822 824 825 827 829 831 833 834 836 837 838 840 842 844 846 848 849 851 853 854 855 857 858 859 860 861 862 862 864 865 865 866 867 868 869 870 871 871 872 872 873 873 874 874 875 875 876 876 877 877 878 878 878 877 877 877 877
777 776 778 781 779 781 789 793 795 799 807 811 814 825 826 818 819 819 813 810 810 810 809 806 804 802 801 800 800 801 801 803 806 807 808 810 813 815 817 819 821 823 825 826 828 829 832 834 835 837 838 839 841 843 845 847 849 851 852 854 856 857 858 859 860 861 861 862 863 864 865 866 867 868 869 869 870 871 872 872 873 873 873 874 874 875 875 876 877 877 878 878 878 877 877 877 877
779 774 771 771 773 778 784 788 795 813 826 813 807 830 836 823 822 822 816 814 812 808 809 808 805 803 802 802 801 800 801 800 802 804 807 809 812 814 817 818 820 822 823 825 827 828 831 833 835 837 838 839 841 843 845 847 848 850 851 853 854 855 857 858 858 859 860 862 863 864 865 866 866 867 868 869 870 870 871 872 873 873 873 874 874 875 875 876 876 877 877 878 878 878 878 877 877
784 770 760 762 768 777 785 787 795 814 823 808 799 819 837 831 823 819 816 816 813 808 809 808 805 804 803 803 801 800 801 801 800 802 804 807 810 812 815 817 818 820 822 825 827 828 830 832 834 836 837 839 840 842 844 846 847 849 850 851 853 854 855 856 857 859 860 861 862 863 865 865 866 867 868 869 869 870 871 872 872 873 873 874 874 875 875 875 876 877 877 877 878 878 878 878 877
780 760 754 761 767 776 782 783 792 800 804 807 801 806 828 836 822 812 814 817 815 811 810 808 805 803 802 802 801 799 800 800 800 802 803 805 808 810 812 815 817 818 820 824 826 828 829 831 833 835 837 839 840 842 843 845 846 847 849 850 852 853 854 855 857 858 860 861 862 863 864 865 866 867 867 868 869 870 870 871 872 872 873 874 874 875 875 875 876 876 877 877 877 878 878 878 878
767 752 753 758 760 770 774 779 790 792 802 821 813 800 821 834 818 809 815 820 818 812 808 806 804 802 800 800 800 798 799 799 799 800 802 804 806 808 810 812 815 817 819 822 824 826 828 830 832 834 836 838 840 841 842 844 845 847 848 849 851 852 854 855 857 858 859 860 862 862 863 864 865 866 867 868 869 869 870 871 871 872 873 873 874 875 875 875 876 876 876 877 877 877 878 878 878
755 748 755 757 761 769 776 788 795 793 807 825 815 801 816 831 822 816 819 819 813 806 802 802 800 799 798 798 798 797 798 798 798 798 800 801 803 805 808 810 814 816 817 820 823 825 827 829 832 833 836 838 839 841 842 844 845 846 848 849 850 851 853 855 856 857 858 859 860 861 862 863 864 865 866 867 868 869 870 870 871 871 872 873 874 874 875 875 875 876 876 876 876 877 877 878 878
747 751 762 770 776 780 788 799 799 806 817 816 808 800 807 824 823 814 810 803 796 796 799 800 798 797 796 796 797 796 796 797 797 798 799 800 802 804 807 810 812 814 817 819 822 824 826 828 831 833 835 837 839 840 842 843 845 846 847 848 849 851 852 853 854 855 857 858 859 860 861 862 863 864 865 866 867 868 869 870 870 871 872 872 873 874 874 875 875 875 875 876 876 876 877 877 878
750 757 764 778 790 790 802 813 812 826 829 807 799 799 803 817 815 803 795 788 786 791 795 796 796 796 794 793 795 794 795 796 797 798 799 801 803 805 807 809 811 814 816 819 821 822 825 827 830 832 834 837 838 840 841 843 844 846 847 848 849 850 851 852 853 854 855 856 857 859 860 861 862 864 865 866 866 867 868 869 869 870 870 871 872 873 874 874 874 875 875 875 876 876 877 877 878
756 761 766 786 806 809 821 833 830 835 825 798 792 800 808 811 805 799 793 786 786 787 788 791 792 792 792 792 793 793 794 795 796 797 799 801 803 805 807 809 811 813 814 817 819 821 823 826 828 831 833 835 837 839 840 842 843 845 846 847 848 849 850 851 852 853 854 855 856 857 858 860 861 862 863 864 865 866 867 868 869 869 870 870 871 872 873 873 874 874 875 875 876 876 877 877 878
758 762 768 786 809 824 837 842 836 831 815 795 790 800 811 809 800 800 795 785 782 781 783 787 788 790 791 790 791 794 795 795 795 796 798 800 802 803 805 807 809 811 813 815 818 820 822 825 827 830 832 834 836 837 839 841 842 844 845 846 847 849 850 851 852 852 853 854 855 856 857 858 860 861 862 863 864 866 867 867 868 869 869 870 871 872 872 873 874 874 875 875 876 876 877 877 878
755 754 760 772 785 804 823 829 827 823 814 802 797 805 816 810 801 797 791 784 780 779 782 784 787 790 790 793 795 795 796 796 796 797 797 799 801 802 804 806 808 809 812 815 817 819 821 823 826 828 830 833 834 836 838 839 841 843 844 846 847 848 849 850 851 852 853 854 855 856 857 858 859 860 861 862 864 865 866 867 868 868 869 870 871 871 872 873 874 874 875 875 876 876 876 877 877
757 750 757 767 763 770 792 802 800 804 814 815 810 815 816 806 799 793 788 787 784 784 786 786 789 790 791 799 803 801 800 800 798 798 798 798 800 802 804 805 807 808 811 814 816 818 820 822 824 826 828 830 832 834 836 838 840 841 843 845 846 848 849 850 851 852 853 854 855 855 856 857 858 859 860 862 863 864 865 866 867 868 869 870 870 871 872 873 873 874 874 875 875 876 876 876 877
756 755 759 760 751 754 777 795 793 796 816 823 816 820 817 805 801 795 790 792 790 789 790 789 790 789 792 799 803 804 804 804 801 799 799 800 800 803 804 805 806 808 810 812 814 816 818 820 822 824 827 829 830 832 834 836 838 840 842 843 845 847 848 849 850 851 852 853 854 855 856 857 858 859 860 861 862 863 864 865 866 867 868 869 870 870 871 872 873 873 874 874 874 875 875 876 876
750 760 755 750 752 754 766 794 808 809 822 827 819 822 822 814 809 800 795 798 798 796 794 793 792 792 796 800 801 802 802 804 805 803 802 802 800 802 803 805 807 808 809 811 812 815 816 818 820 822 825 827 829 831 833 835 837 839 841 842 844 846 847 848 850 851 852 853 854 854 855 856 857 858 859 860 861 862 863 864 865 866 867 868 869 869 870 871 872 872 873 873 874 874 875 875 875
737 746 744 748 766 771 769 788 808 816 830 834 825 823 821 817 812 805 803 804 802 800 797 796 796 796 800 802 800 801 800 802 807 809 808 804 802 803 803 804 806 808 810 811 812 815 816 817 819 820 823 825 827 830 832 834 836 837 840 841 843 845 846 848 849 850 851 852 853 854 855 856 856 857 858 859 860 861 862 863 863 864 865 866 867 868 869 870 871 871 872 872 873 873 874 874 874
734 739 743 748 760 768 770 779 790 806 828 836 831 827 819 812 808 805 806 804 801 801 800 800 801 801 803 802 800 800 800 801 803 808 811 807 803 804 803 804 805 806 809 811 813 815 816 818 819 820 823 825 827 829 831 833 834 836 838 840 842 844 845 847 848 849 850 851 852 853 854 855 856 857 858 858 859 860 861 862 862 863 864 864 865 866 868 869 869 870 870 871 872 872 873 873 873
744 748 754 755 757 760 768 777 783 795 816 830 833 832 820 806 803 803 803 802 799 799 800 801 803 804 804 804 802 801 801 802 802 804 810 809 804 804 804 805 806 807 808 810 812 814 815 818 820 821 823 825 827 828 829 831 833 835 837 838 840 842 844 846 847 848 849 849 851 852 853 855 856 856 857 858 858 859 860 861 862 862 863 863 864 864 866 867 867 868 869 869 870 871 871 871 872
744 749 753 755 758 763 776 789 791 789 801 814 821 825 818 806 800 800 801 801 798 798 799 803 805 805 807 806 805 804 803 804 805 806 808 809 805 804 804 806 807 808 809 810 811 813 815 818 819 821 822 824 826 827 829 831 832 834 836 837 839 841 843 845 846 847 848 848 850 851 852 854 855 856 857 857 858 858 859 860 861 861 862 862 863 863 864 865 865 866 866 867 868 869 869 870 870